contact:dominique.lefevre@mio.osupytheas.fr, maurice.libes@osupytheas.fr, didier.mallarino@osupytheas.fr
Project:EMSO http://www.emso-fr.org/EMSO-France
Depth: 2436.0 m
Title:EMSO Ligure Ouest : Data MII capteur CSTAR
DateTime,Latitude,Longitude,Instrument_Serial,Reference_Counts,Signal_Counts,Corrected_Signal_raw_counts,Calculated_Beam_c_inverse_meters,Internal_thermistor_counts
DateTime,Latitude,Longitude,Instrument_Serial,Reference_Counts,Signal_Counts,Corrected_Signal_raw_counts,Calculated_Beam_c_inverse_meters,Internal_thermistor_counts
2020-02-24T00:01:24,42.805,6.029,CST-1368DR,6729,9428,15220,0.103,551
2020-02-24T00:04:26,42.805,6.029,CST-1368DR,6728,9427,15220,0.103,551
2020-02-24T00:07:27,42.805,6.029,CST-1368DR,6728,9427,15221,0.102,551
2020-02-24T00:10:29,42.805,6.029,CST-1368DR,6728,9424,15217,0.104,551
2020-02-24T00:13:31,42.805,6.029,CST-1368DR,6728,9427,15221,0.102,551
2020-02-24T00:16:32,42.805,6.029,CST-1368DR,6728,9425,15218,0.103,551
2020-02-24T00:19:34,42.805,6.029,CST-1368DR,6728,9425,15218,0.103,551
2020-02-24T00:22:36,42.805,6.029,CST-1368DR,6728,9424,15216,0.104,551
2020-02-24T00:25:37,42.805,6.029,CST-1368DR,6728,9426,15220,0.103,551
2020-02-24T00:28:39,42.805,6.029,CST-1368DR,6728,9427,15221,0.102,551
2020-02-24T00:31:40,42.805,6.029,CST-1368DR,6728,9427,15221,0.102,551
2020-02-24T00:34:42,42.805,6.029,CST-1368DR,6728,9425,15218,0.103,551
2020-02-24T00:37:44,42.805,6.029,CST-1368DR,6728,9428,15222,0.102,551
2020-02-24T00:40:45,42.805,6.029,CST-1368DR,6728,9428,15222,0.102,551
2020-02-24T00:43:47,42.805,6.029,CST-1368DR,6728,9427,15221,0.102,551
2020-02-24T00:46:49,42.805,6.029,CST-1368DR,6728,9426,15220,0.103,551
2020-02-24T00:49:50,42.805,6.029,CST-1368DR,6728,9426,15220,0.103,551
2020-02-24T00:52:52,42.805,6.029,CST-1368DR,6728,9427,15221,0.102,551
2020-02-24T00:55:53,42.805,6.029,CST-1368DR,6728,9427,15220,0.103,551
2020-02-24T00:58:55,42.805,6.029,CST-1368DR,6728,9427,15221,0.102,551
2020-02-24T01:01:57,42.805,6.029,CST-1368DR,6728,9421,15211,0.105,551
2020-02-24T01:04:58,42.805,6.029,CST-1368DR,6728,9428,15222,0.102,551
2020-02-24T01:08:00,42.805,6.029,CST-1368DR,6728,9427,15221,0.102,551
2020-02-24T01:11:02,42.805,6.029,CST-1368DR,6728,9428,15223,0.102,551
2020-02-24T01:14:03,42.805,6.029,CST-1368DR,6728,9427,15221,0.102,551
2020-02-24T01:17:05,42.805,6.029,CST-1368DR,6728,9428,15222,0.102,551
2020-02-24T01:20:07,42.805,6.029,CST-1368DR,6728,9427,15221,0.102,551
2020-02-24T01:23:08,42.805,6.029,CST-1368DR,6728,9427,15221,0.102,551
2020-02-24T01:26:10,42.805,6.029,CST-1368DR,6728,9428,15222,0.102,551
2020-02-24T01:29:11,42.805,6.029,CST-1368DR,6728,9426,15220,0.103,551
2020-02-24T01:32:13,42.805,6.029,CST-1368DR,6728,9426,15220,0.103,551
2020-02-24T01:35:15,42.805,6.029,CST-1368DR,6728,9427,15222,0.102,551
2020-02-24T01:38:16,42.805,6.029,CST-1368DR,6728,9426,15219,0.103,551
2020-02-24T01:41:18,42.805,6.029,CST-1368DR,6728,9428,15222,0.102,551
2020-02-24T01:44:20,42.805,6.029,CST-1368DR,6728,9427,15222,0.102,551
2020-02-24T01:47:21,42.805,6.029,CST-1368DR,6728,9427,15222,0.102,551
2020-02-24T01:50:23,42.805,6.029,CST-1368DR,6728,9426,15220,0.103,551
2020-02-24T01:53:24,42.805,6.029,CST-1368DR,6728,9426,15220,0.103,551
2020-02-24T01:56:26,42.805,6.029,CST-1368DR,6728,9427,15220,0.103,551
2020-02-24T01:59:28,42.805,6.029,CST-1368DR,6728,9426,15220,0.103,551
2020-02-24T02:02:29,42.805,6.029,CST-1368DR,6728,9427,15221,0.102,551
2020-02-24T02:05:31,42.805,6.029,CST-1368DR,6728,9425,15217,0.104,551
2020-02-24T02:08:33,42.805,6.029,CST-1368DR,6728,9428,15223,0.102,551
2020-02-24T02:11:34,42.805,6.029,CST-1368DR,6728,9427,15221,0.102,551
2020-02-24T02:14:36,42.805,6.029,CST-1368DR,6728,9428,15223,0.102,551
2020-02-24T02:17:37,42.805,6.029,CST-1368DR,6728,9426,15219,0.103,551
2020-02-24T02:20:39,42.805,6.029,CST-1368DR,6728,9425,15218,0.103,551
2020-02-24T02:23:41,42.805,6.029,CST-1368DR,6728,9428,15222,0.102,551
2020-02-24T02:26:42,42.805,6.029,CST-1368DR,6728,9427,15221,0.102,551
2020-02-24T02:29:44,42.805,6.029,CST-1368DR,6728,9427,15220,0.103,551
2020-02-24T02:32:46,42.805,6.029,CST-1368DR,6728,9427,15222,0.102,551
2020-02-24T02:35:47,42.805,6.029,CST-1368DR,6728,9423,15215,0.104,551
2020-02-24T02:38:49,42.805,6.029,CST-1368DR,6728,9427,15222,0.102,551
2020-02-24T02:41:50,42.805,6.029,CST-1368DR,6728,9427,15222,0.102,551
2020-02-24T02:44:52,42.805,6.029,CST-1368DR,6728,9426,15219,0.103,551
2020-02-24T02:47:54,42.805,6.029,CST-1368DR,6728,9426,15220,0.103,551
2020-02-24T02:50:55,42.805,6.029,CST-1368DR,6728,9426,15220,0.103,551
2020-02-24T02:53:57,42.805,6.029,CST-1368DR,6728,9424,15216,0.104,551
2020-02-24T02:56:59,42.805,6.029,CST-1368DR,6728,9425,15218,0.103,551
2020-02-24T03:00:00,42.805,6.029,CST-1368DR,6728,9427,15221,0.102,551
2020-02-24T03:03:02,42.805,6.029,CST-1368DR,6728,9426,15220,0.103,551
2020-02-24T03:06:03,42.805,6.029,CST-1368DR,6728,9427,15221,0.102,551
2020-02-24T03:09:05,42.805,6.029,CST-1368DR,6728,9426,15220,0.103,551
2020-02-24T03:12:07,42.805,6.029,CST-1368DR,6728,9428,15222,0.102,551
2020-02-24T03:15:08,42.805,6.029,CST-1368DR,6728,9426,15219,0.103,551
2020-02-24T03:18:10,42.805,6.029,CST-1368DR,6728,9427,15222,0.102,551
2020-02-24T03:21:12,42.805,6.029,CST-1368DR,6728,9428,15222,0.102,551
2020-02-24T03:24:13,42.805,6.029,CST-1368DR,6728,9428,15222,0.102,551
2020-02-24T03:27:15,42.805,6.029,CST-1368DR,6728,9427,15222,0.102,550
2020-02-24T03:30:17,42.805,6.029,CST-1368DR,6728,9427,15221,0.102,551
2020-02-24T03:33:18,42.805,6.029,CST-1368DR,6728,9428,15222,0.102,551
2020-02-24T03:36:20,42.805,6.029,CST-1368DR,6728,9428,15222,0.102,551
2020-02-24T03:39:21,42.805,6.029,CST-1368DR,6728,9427,15221,0.102,551
2020-02-24T03:42:23,42.805,6.029,CST-1368DR,6728,9425,15218,0.103,551
2020-02-24T03:45:25,42.805,6.029,CST-1368DR,6728,9426,15220,0.103,551
2020-02-24T03:48:26,42.805,6.029,CST-1368DR,6728,9426,15220,0.103,551
2020-02-24T03:51:28,42.805,6.029,CST-1368DR,6728,9426,15220,0.103,551
2020-02-24T03:54:29,42.805,6.029,CST-1368DR,6728,9427,15221,0.102,551
2020-02-24T03:57:31,42.805,6.029,CST-1368DR,6728,9426,15219,0.103,551
2020-02-24T04:00:33,42.805,6.029,CST-1368DR,6728,9427,15221,0.102,551
2020-02-24T04:03:34,42.805,6.029,CST-1368DR,6728,9427,15221,0.102,551
2020-02-24T04:06:36,42.805,6.029,CST-1368DR,6728,9427,15221,0.102,551
2020-02-24T04:09:38,42.805,6.029,CST-1368DR,6728,9426,15220,0.103,550
2020-02-24T04:12:39,42.805,6.029,CST-1368DR,6728,9425,15218,0.103,551
2020-02-24T04:15:41,42.805,6.029,CST-1368DR,6728,9427,15221,0.102,550
2020-02-24T04:18:43,42.805,6.029,CST-1368DR,6728,9427,15221,0.102,551
2020-02-24T04:21:45,42.805,6.029,CST-1368DR,6727,9426,15222,0.102,550
2020-02-24T04:24:46,42.805,6.029,CST-1368DR,6728,9428,15222,0.102,551
2020-02-24T04:27:48,42.805,6.029,CST-1368DR,6728,9427,15220,0.103,551
2020-02-24T04:30:49,42.805,6.029,CST-1368DR,6727,9425,15220,0.103,551
2020-02-24T04:33:51,42.805,6.029,CST-1368DR,6728,9427,15222,0.102,551
2020-02-24T04:36:53,42.805,6.029,CST-1368DR,6727,9427,15224,0.102,551
2020-02-24T04:39:54,42.805,6.029,CST-1368DR,6727,9428,15224,0.102,551
2020-02-24T04:42:56,42.805,6.029,CST-1368DR,6727,9427,15224,0.102,551
2020-02-24T04:45:58,42.805,6.029,CST-1368DR,6727,9428,15224,0.102,551
2020-02-24T04:48:59,42.805,6.029,CST-1368DR,6727,9427,15222,0.102,551
2020-02-24T04:52:01,42.805,6.029,CST-1368DR,6727,9427,15224,0.102,551
2020-02-24T04:55:02,42.805,6.029,CST-1368DR,6727,9427,15223,0.102,551
2020-02-24T04:58:04,42.805,6.029,CST-1368DR,6727,9427,15223,0.102,551
2020-02-24T05:01:07,42.805,6.029,CST-1368DR,6727,9427,15223,0.102,550
2020-02-24T05:04:08,42.805,6.029,CST-1368DR,6727,9424,15219,0.103,551
2020-02-24T05:07:10,42.805,6.029,CST-1368DR,6727,9428,15224,0.102,551
2020-02-24T05:10:12,42.805,6.029,CST-1368DR,6727,9428,15225,0.101,551
2020-02-24T05:13:13,42.805,6.029,CST-1368DR,6727,9427,15223,0.102,551
2020-02-24T05:16:15,42.805,6.029,CST-1368DR,6727,9424,15218,0.103,551
2020-02-24T05:19:17,42.805,6.029,CST-1368DR,6727,9425,15220,0.103,551
2020-02-24T05:22:18,42.805,6.029,CST-1368DR,6727,9426,15222,0.102,551
2020-02-24T05:25:20,42.805,6.029,CST-1368DR,6727,9427,15222,0.102,551
2020-02-24T05:28:22,42.805,6.029,CST-1368DR,6727,9426,15222,0.102,551
2020-02-24T05:31:23,42.805,6.029,CST-1368DR,6727,9426,15222,0.102,551
2020-02-24T05:34:25,42.805,6.029,CST-1368DR,6727,9427,15223,0.102,551
2020-02-24T05:37:27,42.805,6.029,CST-1368DR,6727,9427,15222,0.102,551
2020-02-24T05:40:28,42.805,6.029,CST-1368DR,6727,9428,15224,0.102,551
2020-02-24T05:43:30,42.805,6.029,CST-1368DR,6727,9424,15218,0.103,551
2020-02-24T05:46:32,42.805,6.029,CST-1368DR,6727,9427,15223,0.102,551
2020-02-24T05:49:33,42.805,6.029,CST-1368DR,6727,9426,15222,0.102,551
2020-02-24T05:52:35,42.805,6.029,CST-1368DR,6727,9424,15218,0.103,551
2020-02-24T05:55:36,42.805,6.029,CST-1368DR,6727,9427,15223,0.102,551
2020-02-24T05:58:38,42.805,6.029,CST-1368DR,6727,9427,15222,0.102,551
2020-02-24T06:01:40,42.805,6.029,CST-1368DR,6727,9427,15223,0.102,551
2020-02-24T06:04:41,42.805,6.029,CST-1368DR,6727,9426,15222,0.102,551
2020-02-24T06:07:43,42.805,6.029,CST-1368DR,6727,9427,15224,0.102,551
2020-02-24T06:10:45,42.805,6.029,CST-1368DR,6727,9426,15222,0.102,551
2020-02-24T06:13:46,42.805,6.029,CST-1368DR,6727,9427,15224,0.102,551
2020-02-24T06:16:48,42.805,6.029,CST-1368DR,6727,9428,15224,0.102,551
2020-02-24T06:19:49,42.805,6.029,CST-1368DR,6727,9427,15223,0.102,551
2020-02-24T06:22:51,42.805,6.029,CST-1368DR,6727,9427,15223,0.102,551
2020-02-24T06:25:53,42.805,6.029,CST-1368DR,6727,9427,15222,0.102,551
2020-02-24T06:28:54,42.805,6.029,CST-1368DR,6727,9427,15222,0.102,551
2020-02-24T06:31:56,42.805,6.029,CST-1368DR,6727,9427,15224,0.102,551
2020-02-24T06:34:58,42.805,6.029,CST-1368DR,6727,9427,15223,0.102,551
2020-02-24T06:37:59,42.805,6.029,CST-1368DR,6727,9428,15224,0.102,551
2020-02-24T06:41:01,42.805,6.029,CST-1368DR,6727,9427,15223,0.102,551
2020-02-24T06:44:03,42.805,6.029,CST-1368DR,6727,9426,15222,0.102,551
2020-02-24T06:47:04,42.805,6.029,CST-1368DR,6727,9427,15223,0.102,551
2020-02-24T06:50:06,42.805,6.029,CST-1368DR,6727,9425,15220,0.103,551
2020-02-24T06:53:08,42.805,6.029,CST-1368DR,6727,9427,15223,0.102,551
2020-02-24T06:56:09,42.805,6.029,CST-1368DR,6727,9427,15223,0.102,551
2020-02-24T06:59:11,42.805,6.029,CST-1368DR,6727,9428,15224,0.102,551
2020-02-24T07:02:12,42.805,6.029,CST-1368DR,6727,9428,15224,0.102,551
2020-02-24T07:05:14,42.805,6.029,CST-1368DR,6727,9426,15221,0.102,551
2020-02-24T07:08:16,42.805,6.029,CST-1368DR,6727,9427,15222,0.102,551
2020-02-24T07:11:17,42.805,6.029,CST-1368DR,6727,9427,15223,0.102,551
2020-02-24T07:14:19,42.805,6.029,CST-1368DR,6727,9428,15224,0.102,551
2020-02-24T07:17:21,42.805,6.029,CST-1368DR,6727,9428,15224,0.102,551
2020-02-24T07:20:22,42.805,6.029,CST-1368DR,6727,9427,15223,0.102,551
2020-02-24T07:23:24,42.805,6.029,CST-1368DR,6727,9427,15222,0.102,551
2020-02-24T07:26:25,42.805,6.029,CST-1368DR,6727,9428,15224,0.102,551
2020-02-24T07:29:27,42.805,6.029,CST-1368DR,6727,9426,15222,0.102,551
2020-02-24T07:32:29,42.805,6.029,CST-1368DR,6727,9425,15220,0.103,551
2020-02-24T07:35:30,42.805,6.029,CST-1368DR,6727,9427,15222,0.102,551
2020-02-24T07:38:32,42.805,6.029,CST-1368DR,6727,9426,15222,0.102,551
2020-02-24T07:41:34,42.805,6.029,CST-1368DR,6727,9427,15223,0.102,551
2020-02-24T07:44:35,42.805,6.029,CST-1368DR,6727,9425,15220,0.103,551
2020-02-24T07:47:37,42.805,6.029,CST-1368DR,6727,9427,15223,0.102,551
2020-02-24T07:50:38,42.805,6.029,CST-1368DR,6727,9426,15221,0.102,551
2020-02-24T07:53:40,42.805,6.029,CST-1368DR,6727,9427,15224,0.102,551
2020-02-24T07:56:42,42.805,6.029,CST-1368DR,6727,9427,15224,0.102,551
2020-02-24T07:59:43,42.805,6.029,CST-1368DR,6727,9427,15223,0.102,551
2020-02-24T08:02:45,42.805,6.029,CST-1368DR,6727,9427,15222,0.102,551
2020-02-24T08:05:47,42.805,6.029,CST-1368DR,6727,9427,15223,0.102,551
2020-02-24T08:08:48,42.805,6.029,CST-1368DR,6727,9426,15222,0.102,551
2020-02-24T08:11:50,42.805,6.029,CST-1368DR,6727,9427,15222,0.102,551
2020-02-24T08:14:52,42.805,6.029,CST-1368DR,6727,9424,15218,0.103,551
2020-02-24T08:17:53,42.805,6.029,CST-1368DR,6727,9427,15222,0.102,551
2020-02-24T08:20:55,42.805,6.029,CST-1368DR,6727,9427,15222,0.102,551
2020-02-24T08:23:56,42.805,6.029,CST-1368DR,6727,9426,15221,0.102,551
2020-02-24T08:26:58,42.805,6.029,CST-1368DR,6727,9426,15222,0.102,551
2020-02-24T08:30:00,42.805,6.029,CST-1368DR,6727,9427,15222,0.102,551
2020-02-24T08:33:01,42.805,6.029,CST-1368DR,6727,9426,15222,0.102,551
2020-02-24T08:36:03,42.805,6.029,CST-1368DR,6727,9427,15222,0.102,551
2020-02-24T08:39:05,42.805,6.029,CST-1368DR,6727,9427,15223,0.102,551
2020-02-24T08:42:06,42.805,6.029,CST-1368DR,6727,9426,15222,0.102,551
2020-02-24T08:45:08,42.805,6.029,CST-1368DR,6726,9425,15222,0.102,551
2020-02-24T08:48:09,42.805,6.029,CST-1368DR,6727,9427,15223,0.102,551
2020-02-24T08:51:11,42.805,6.029,CST-1368DR,6727,9427,15223,0.102,551
2020-02-24T08:54:13,42.805,6.029,CST-1368DR,6727,9427,15224,0.102,551
2020-02-24T08:57:14,42.805,6.029,CST-1368DR,6727,9425,15220,0.103,551
2020-02-24T09:00:16,42.805,6.029,CST-1368DR,6726,9427,15225,0.101,551
2020-02-24T09:03:18,42.805,6.029,CST-1368DR,6726,9425,15222,0.102,551
2020-02-24T09:06:19,42.805,6.029,CST-1368DR,6726,9426,15224,0.102,551
2020-02-24T09:09:21,42.805,6.029,CST-1368DR,6726,9426,15223,0.102,551
2020-02-24T09:12:22,42.805,6.029,CST-1368DR,6726,9425,15222,0.102,551
2020-02-24T09:15:24,42.805,6.029,CST-1368DR,6726,9426,15224,0.102,551
2020-02-24T09:18:26,42.805,6.029,CST-1368DR,6726,9426,15223,0.102,551
2020-02-24T09:21:27,42.805,6.029,CST-1368DR,6726,9425,15223,0.102,551
2020-02-24T09:24:29,42.805,6.029,CST-1368DR,6726,9426,15223,0.102,551
2020-02-24T09:27:31,42.805,6.029,CST-1368DR,6726,9423,15219,0.103,551
2020-02-24T09:30:32,42.805,6.029,CST-1368DR,6726,9426,15223,0.102,551
2020-02-24T09:33:34,42.805,6.029,CST-1368DR,6726,9425,15221,0.102,550
2020-02-24T09:36:36,42.805,6.029,CST-1368DR,6726,9425,15222,0.102,551
2020-02-24T09:39:37,42.805,6.029,CST-1368DR,6726,9424,15221,0.102,550
2020-02-24T09:42:39,42.805,6.029,CST-1368DR,6726,9425,15222,0.102,551
2020-02-24T09:45:40,42.805,6.029,CST-1368DR,6726,9423,15219,0.103,551
2020-02-24T09:48:42,42.805,6.029,CST-1368DR,6726,9424,15220,0.103,551
2020-02-24T09:51:44,42.805,6.029,CST-1368DR,6726,9426,15223,0.102,551
2020-02-24T09:54:45,42.805,6.029,CST-1368DR,6726,9424,15221,0.102,551
2020-02-24T09:57:47,42.805,6.029,CST-1368DR,6726,9425,15221,0.102,551
2020-02-24T10:00:49,42.805,6.029,CST-1368DR,6726,9424,15220,0.103,551
2020-02-24T10:03:50,42.805,6.029,CST-1368DR,6726,9423,15219,0.103,551
2020-02-24T10:06:52,42.805,6.029,CST-1368DR,6726,9423,15219,0.103,551
2020-02-24T10:09:53,42.805,6.029,CST-1368DR,6726,9424,15221,0.102,551
2020-02-24T10:12:55,42.805,6.029,CST-1368DR,6726,9423,15219,0.103,551
2020-02-24T10:15:57,42.805,6.029,CST-1368DR,6726,9425,15221,0.102,551
2020-02-24T10:18:58,42.805,6.029,CST-1368DR,6726,9425,15221,0.102,551
2020-02-24T10:22:00,42.805,6.029,CST-1368DR,6726,9424,15220,0.103,551
2020-02-24T10:25:02,42.805,6.029,CST-1368DR,6726,9425,15222,0.102,551
2020-02-24T10:28:03,42.805,6.029,CST-1368DR,6726,9425,15221,0.102,551
2020-02-24T10:31:06,42.805,6.029,CST-1368DR,6726,9424,15220,0.103,551
2020-02-24T10:34:08,42.805,6.029,CST-1368DR,6726,9425,15223,0.102,551
2020-02-24T10:37:09,42.805,6.029,CST-1368DR,6726,9424,15220,0.103,551
2020-02-24T10:40:11,42.805,6.029,CST-1368DR,6726,9423,15219,0.103,551
2020-02-24T10:43:13,42.805,6.029,CST-1368DR,6726,9425,15222,0.102,551
2020-02-24T10:46:14,42.805,6.029,CST-1368DR,6726,9425,15222,0.102,551
2020-02-24T10:49:16,42.805,6.029,CST-1368DR,6726,9424,15221,0.102,551
2020-02-24T10:52:17,42.805,6.029,CST-1368DR,6726,9424,15221,0.102,551
2020-02-24T10:55:19,42.805,6.029,CST-1368DR,6726,9424,15220,0.103,551
2020-02-24T10:58:21,42.805,6.029,CST-1368DR,6726,9424,15220,0.103,551
2020-02-24T11:01:22,42.805,6.029,CST-1368DR,6726,9423,15219,0.103,551
2020-02-24T11:04:24,42.805,6.029,CST-1368DR,6726,9423,15219,0.103,551
2020-02-24T11:07:26,42.805,6.029,CST-1368DR,6726,9425,15221,0.102,551
2020-02-24T11:10:28,42.805,6.029,CST-1368DR,6726,9424,15221,0.102,551
2020-02-24T11:13:29,42.805,6.029,CST-1368DR,6726,9423,15219,0.103,551
2020-02-24T11:16:31,42.805,6.029,CST-1368DR,6726,9424,15221,0.102,551
2020-02-24T11:19:32,42.805,6.029,CST-1368DR,6726,9424,15220,0.103,551
2020-02-24T11:22:34,42.805,6.029,CST-1368DR,6726,9424,15221,0.102,551
2020-02-24T11:25:36,42.805,6.029,CST-1368DR,6726,9422,15217,0.104,551
2020-02-24T11:28:37,42.805,6.029,CST-1368DR,6726,9422,15217,0.104,551
2020-02-24T11:31:39,42.805,6.029,CST-1368DR,6726,9424,15220,0.103,551
2020-02-24T11:34:41,42.805,6.029,CST-1368DR,6726,9423,15219,0.103,551
2020-02-24T11:37:42,42.805,6.029,CST-1368DR,6726,9423,15219,0.103,551
2020-02-24T11:40:44,42.805,6.029,CST-1368DR,6726,9422,15217,0.104,551
2020-02-24T11:43:45,42.805,6.029,CST-1368DR,6726,9423,15219,0.103,551
2020-02-24T11:46:47,42.805,6.029,CST-1368DR,6726,9423,15219,0.103,551
2020-02-24T11:49:49,42.805,6.029,CST-1368DR,6726,9423,15219,0.103,551
2020-02-24T11:52:50,42.805,6.029,CST-1368DR,6726,9420,15213,0.105,551
2020-02-24T11:55:52,42.805,6.029,CST-1368DR,6726,9425,15221,0.102,551
2020-02-24T11:58:54,42.805,6.029,CST-1368DR,6726,9422,15217,0.104,551
2020-02-24T12:01:55,42.805,6.029,CST-1368DR,6726,9424,15220,0.103,551
2020-02-24T12:04:57,42.805,6.029,CST-1368DR,6726,9422,15217,0.104,551
2020-02-24T12:07:58,42.805,6.029,CST-1368DR,6726,9423,15219,0.103,551
2020-02-24T12:11:00,42.805,6.029,CST-1368DR,6726,9422,15216,0.104,551
2020-02-24T12:14:02,42.805,6.029,CST-1368DR,6726,9423,15219,0.103,551
2020-02-24T12:17:03,42.805,6.029,CST-1368DR,6726,9422,15217,0.104,550
2020-02-24T12:20:05,42.805,6.029,CST-1368DR,6726,9423,15219,0.103,551
2020-02-24T12:23:07,42.805,6.029,CST-1368DR,6726,9418,15211,0.105,551
2020-02-24T12:26:08,42.805,6.029,CST-1368DR,6726,9423,15219,0.103,551
2020-02-24T12:29:10,42.805,6.029,CST-1368DR,6726,9424,15221,0.102,551
2020-02-24T12:32:11,42.805,6.029,CST-1368DR,6726,9421,15216,0.104,551
2020-02-24T12:35:13,42.805,6.029,CST-1368DR,6726,9423,15219,0.103,551
2020-02-24T12:38:15,42.805,6.029,CST-1368DR,6726,9415,15206,0.106,550
2020-02-24T12:41:16,42.805,6.029,CST-1368DR,6726,9423,15219,0.103,551
2020-02-24T12:44:18,42.805,6.029,CST-1368DR,6726,9423,15218,0.103,551
2020-02-24T12:47:20,42.805,6.029,CST-1368DR,6726,9423,15219,0.103,551
2020-02-24T12:50:21,42.805,6.029,CST-1368DR,6726,9423,15219,0.103,551
2020-02-24T12:53:23,42.805,6.029,CST-1368DR,6726,9422,15217,0.104,551
2020-02-24T12:56:25,42.805,6.029,CST-1368DR,6726,9421,15216,0.104,551
2020-02-24T12:59:26,42.805,6.029,CST-1368DR,6726,9424,15220,0.103,551
2020-02-24T13:02:28,42.805,6.029,CST-1368DR,6726,9422,15217,0.104,551
2020-02-24T13:05:29,42.805,6.029,CST-1368DR,6726,9421,15215,0.104,551
2020-02-24T13:08:31,42.805,6.029,CST-1368DR,6726,9420,15214,0.104,551
2020-02-24T13:11:33,42.805,6.029,CST-1368DR,6726,9423,15218,0.103,551
2020-02-24T13:14:34,42.805,6.029,CST-1368DR,6726,9421,15215,0.104,551
2020-02-24T13:17:36,42.805,6.029,CST-1368DR,6726,9421,15216,0.104,551
2020-02-24T13:20:38,42.805,6.029,CST-1368DR,6726,9421,15215,0.104,551
2020-02-24T13:23:39,42.805,6.029,CST-1368DR,6726,9422,15216,0.104,551
2020-02-24T13:26:41,42.805,6.029,CST-1368DR,6725,9420,15215,0.104,551
2020-02-24T13:29:42,42.805,6.029,CST-1368DR,6726,9420,15214,0.104,551
2020-02-24T13:32:44,42.805,6.029,CST-1368DR,6726,9420,15214,0.104,551
2020-02-24T13:35:46,42.805,6.029,CST-1368DR,6725,9421,15217,0.104,551
2020-02-24T13:38:47,42.805,6.029,CST-1368DR,6726,9422,15217,0.104,551
2020-02-24T13:41:49,42.805,6.029,CST-1368DR,6725,9415,15209,0.106,551
2020-02-24T13:44:51,42.805,6.029,CST-1368DR,6726,9421,15216,0.104,551
2020-02-24T13:47:52,42.805,6.029,CST-1368DR,6725,9421,15218,0.103,551
2020-02-24T13:50:54,42.805,6.029,CST-1368DR,6725,9422,15219,0.103,551
2020-02-24T13:53:56,42.805,6.029,CST-1368DR,6725,9419,15214,0.104,551
2020-02-24T13:56:57,42.805,6.029,CST-1368DR,6725,9421,15218,0.103,551
2020-02-24T13:59:59,42.805,6.029,CST-1368DR,6725,9421,15218,0.103,551
2020-02-24T14:03:00,42.805,6.029,CST-1368DR,6725,9418,15212,0.105,551
2020-02-24T14:06:02,42.805,6.029,CST-1368DR,6725,9421,15217,0.104,551
2020-02-24T14:09:04,42.805,6.029,CST-1368DR,6725,9421,15217,0.104,551
2020-02-24T14:12:05,42.805,6.029,CST-1368DR,6725,9421,15217,0.104,551
2020-02-24T14:15:07,42.805,6.029,CST-1368DR,6725,9421,15218,0.103,551
2020-02-24T14:18:09,42.805,6.029,CST-1368DR,6725,9422,15219,0.103,551
2020-02-24T14:21:10,42.805,6.029,CST-1368DR,6725,9419,15214,0.104,551
2020-02-24T14:24:12,42.805,6.029,CST-1368DR,6725,9420,15217,0.104,551
2020-02-24T14:27:14,42.805,6.029,CST-1368DR,6725,9419,15215,0.104,551
2020-02-24T14:30:16,42.805,6.029,CST-1368DR,6725,9420,15217,0.104,551
2020-02-24T14:33:17,42.805,6.029,CST-1368DR,6725,9420,15217,0.104,551
2020-02-24T14:36:19,42.805,6.029,CST-1368DR,6725,9419,15214,0.104,551
2020-02-24T14:39:21,42.805,6.029,CST-1368DR,6725,9420,15216,0.104,551
2020-02-24T14:42:22,42.805,6.029,CST-1368DR,6725,9421,15218,0.103,550
2020-02-24T14:45:24,42.805,6.029,CST-1368DR,6725,9420,15217,0.104,551
2020-02-24T14:48:26,42.805,6.029,CST-1368DR,6725,9420,15215,0.104,551
2020-02-24T14:51:27,42.805,6.029,CST-1368DR,6725,9419,15214,0.104,551
2020-02-24T14:54:29,42.805,6.029,CST-1368DR,6725,9417,15212,0.105,551
2020-02-24T14:57:30,42.805,6.029,CST-1368DR,6725,9420,15216,0.104,551
2020-02-24T15:00:32,42.805,6.029,CST-1368DR,6725,9421,15218,0.103,551
2020-02-24T15:03:34,42.805,6.029,CST-1368DR,6725,9421,15217,0.104,551
2020-02-24T15:06:35,42.805,6.029,CST-1368DR,6725,9418,15213,0.105,551
2020-02-24T15:09:37,42.805,6.029,CST-1368DR,6725,9418,15213,0.105,551
2020-02-24T15:12:39,42.805,6.029,CST-1368DR,6725,9420,15216,0.104,551
2020-02-24T15:15:40,42.805,6.029,CST-1368DR,6725,9421,15218,0.103,551
2020-02-24T15:18:42,42.805,6.029,CST-1368DR,6725,9420,15216,0.104,551
2020-02-24T15:21:43,42.805,6.029,CST-1368DR,6725,9421,15217,0.104,551
2020-02-24T15:24:45,42.805,6.029,CST-1368DR,6725,9421,15217,0.104,551
2020-02-24T15:27:47,42.805,6.029,CST-1368DR,6725,9418,15213,0.105,551
2020-02-24T15:30:48,42.805,6.029,CST-1368DR,6725,9420,15216,0.104,551
2020-02-24T15:33:50,42.805,6.029,CST-1368DR,6725,9418,15213,0.105,551
2020-02-24T15:36:51,42.805,6.029,CST-1368DR,6725,9418,15213,0.105,551
2020-02-24T15:39:53,42.805,6.029,CST-1368DR,6725,9421,15217,0.104,551
2020-02-24T15:42:55,42.805,6.029,CST-1368DR,6725,9421,15218,0.103,551
2020-02-24T15:45:56,42.805,6.029,CST-1368DR,6725,9419,15215,0.104,551
2020-02-24T15:48:58,42.805,6.029,CST-1368DR,6725,9420,15216,0.104,551
2020-02-24T15:52:00,42.805,6.029,CST-1368DR,6725,9421,15218,0.103,551
2020-02-24T15:55:01,42.805,6.029,CST-1368DR,6725,9422,15219,0.103,551
2020-02-24T15:58:03,42.805,6.029,CST-1368DR,6725,9422,15219,0.103,551
2020-02-24T16:01:05,42.805,6.029,CST-1368DR,6725,9421,15218,0.103,551
2020-02-24T16:04:07,42.805,6.029,CST-1368DR,6725,9421,15217,0.104,551
2020-02-24T16:07:08,42.805,6.029,CST-1368DR,6725,9420,15216,0.104,551
2020-02-24T16:10:10,42.805,6.029,CST-1368DR,6725,9402,15186,0.112,551
2020-02-24T16:13:12,42.805,6.029,CST-1368DR,6725,9421,15218,0.103,551
2020-02-24T16:16:13,42.805,6.029,CST-1368DR,6725,9421,15218,0.103,551
2020-02-24T16:19:15,42.805,6.029,CST-1368DR,6725,9421,15217,0.104,551
2020-02-24T16:22:17,42.805,6.029,CST-1368DR,6725,9421,15218,0.103,551
2020-02-24T16:25:18,42.805,6.029,CST-1368DR,6725,9422,15219,0.103,551
2020-02-24T16:28:20,42.805,6.029,CST-1368DR,6725,9422,15219,0.103,551
2020-02-24T16:31:22,42.805,6.029,CST-1368DR,6725,9423,15221,0.102,551
2020-02-24T16:34:23,42.805,6.029,CST-1368DR,6725,9423,15220,0.103,551
2020-02-24T16:40:06,42.805,6.029,CST-1368DR,6725,9424,15222,0.102,551
2020-02-24T16:43:08,42.805,6.029,CST-1368DR,6725,9423,15220,0.103,551
2020-02-24T16:46:09,42.805,6.029,CST-1368DR,6725,9422,15219,0.103,551
2020-02-24T16:49:11,42.805,6.029,CST-1368DR,6725,9424,15222,0.102,551
2020-02-24T16:52:13,42.805,6.029,CST-1368DR,6725,9423,15221,0.102,551
2020-02-24T16:55:14,42.805,6.029,CST-1368DR,6725,9423,15221,0.102,551